Home   Weather   Fregenal de la Sierra   Past weeks
Flag for Spain

Past Weather in Fregenal de la Sierra, Badajoz, Spain — Yesterday and Last 2 Weeks

Now
64 °F

Passing clouds.


Feels Like: 64 °F
Forecast: 69 / 47 °F
Wind: 13 mph from Southeast

Location: Rota Airport

Current Time: Mar 21, 2019 at 1:13:50 pm

Latest Report: Mar 21, 2019 at 12:00 pm


Visibility: N/A

Pressure: 30.24 "Hg

Humidity: 37%

Dew Point: 37 °F

Location of Fregenal de la SierraLocation

Past Weather in Fregenal de la Sierra — Graph

°F

Fregenal de la Sierra Temperature Yesterday

Maximum temperature yesterday: 64 °F (at 1:00 pm)
Minimum temperature yesterday: 48 °F (at 6:00 am)
Average temperature yesterday: 57 °F

High & Low Weather Summary for the Past Weeks

 TemperatureHumidityPressure
High77 °F (Mar 11, 2:00 pm)100% (Mar 9, 1:00 am)30.45 "Hg (Mar 9, 1:00 am)
Low45 °F (Mar 7, 6:00 am)23% (Mar 19, 5:00 pm)29.89 "Hg (Mar 6, 3:00 pm)
Average59 °F70%30.22 "Hg
* Reported Mar 6 12:24 pm — Mar 21 12:00 pm, Fregenal de la Sierra. Weather by CustomWeather, © 2019

Note: Actual official high and low records may vary slightly from our data, if they occured in-between our weather recording intervals... More about our weather records

Advertising

Fregenal de la Sierra Weather History for the Previous 24 Hours

Scroll right to see more
 ConditionsComfort  
Time TempWeatherWind HumidityBarometerVisibility
12:00 pm
Thu, Mar 21
64 °FPassing clouds.13 mph37%30.24 "HgN/A
11:00 am61 °FPassing clouds.17 mph45%30.24 "HgN/A
10:00 am55 °FSunny.9 mph63%30.24 "Hg10 mi
9:00 am50 °FPassing clouds.9 mph71%30.24 "HgN/A
8:00 am45 °FPassing clouds.9 mph81%30.24 "HgN/A
7:00 am46 °FClear.8 mph82%30.24 "Hg10 mi
6:00 am46 °FClear.8 mph76%30.21 "Hg10 mi
5:00 am48 °FClear.8 mph71%30.21 "Hg10 mi
4:00 am54 °FClear.12 mph72%30.21 "Hg10 mi
3:00 am54 °FClear.17 mph72%30.21 "Hg10 mi
2:00 am55 °FClear.14 mph63%30.24 "Hg10 mi
1:00 am55 °FPassing clouds.18 mph67%30.21 "HgN/A
12:00 am55 °FClear.17 mph67%30.24 "Hg10 mi
11:00 pm
Wed, Mar 20
55 °FPassing clouds.17 mph67%30.24 "HgN/A
10:00 pm57 °FPassing clouds.16 mph63%30.24 "HgN/A
9:00 pm57 °FPassing clouds.15 mph59%30.21 "HgN/A
8:00 pm59 °FPassing clouds.18 mph51%30.21 "HgN/A
7:00 pm61 °FPassing clouds.17 mph55%30.21 "HgN/A
6:00 pm64 °FPassing clouds.15 mph46%30.18 "HgN/A
5:00 pm63 °FPartly sunny.17 mph49%30.18 "HgN/A
4:00 pm64 °FPartly sunny.10 mph46%30.18 "HgN/A
3:00 pm64 °FPartly sunny.14 mph46%30.21 "HgN/A
2:00 pm64 °FPartly sunny.12 mph46%30.21 "HgN/A
1:00 pm64 °FScattered clouds.16 mph46%30.24 "HgN/A
Weather by CustomWeather, © 2019

See weather overview